Regional Weather Roundup
Issued by NWS

Home | Current Version | Previous Version | Text Only | Print | Product List | Glossary Off
Versions: 1 2 3 4 5 6 7 8 9 10 11 12 13 14 15 16 17 18 19 20 21 22 23 24 25 26 27 28 29 30 31 32 33 34 35 36 37 38 39 40 41 42 43 44 45 46 47 48 49 50

000
ASUS43 KLOT 172006
RWRIL

ILLINOIS REGIONAL WEATHER ROUNDUP
NATIONAL WEATHER SERVICE CHICAGO/ROMEOVILLE IL
200 PM CST WED DEC 17 2014

NOTE: "FAIR" INDICATES FEW OR NO CLOUDS BELOW 12,000 FEET WITH NO
SIGNIFICANT WEATHER AND/OR OBSTRUCTIONS TO VISIBILITY.

* THESE STATIONS ARE NOT UNDER NWS QUALITY CONTROL. THEY ALSO MAY NOT
  REPORT WEATHER SUCH AS PRECIPITATION OR FOG.

ILZ001-002-007-009-015-016-024-172100-
NORTHWEST ILLINOIS

CITY           SKY/WX    TMP DP  RH WIND       PRES   REMARKS
MOLINE         SUNNY     28  16  60 NW10      30.25F WCI  19
STERLING*      CLOUDY    27  16  63 NW12G18   30.24F WCI  16
SAVANNA*       PTSUNNY   25  16  68 NW9       30.24F WCI  15
$$

ILZ003-004-008-010-011-017-018-172100-
NORTH CENTRAL ILLINOIS

CITY           SKY/WX    TMP DP  RH WIND       PRES   REMARKS
ROCKFORD       CLOUDY    25  16  68 NW13      30.25R WCI  14
FREEPORT*      CLOUDY    24  16  73 W10       30.25S WCI  13
ROCHELLE*      CLOUDY    25  18  74 W13       30.23F WCI  14
DE KALB*       CLOUDY    24  18  78 NW12      30.21F WCI  13
PERU*          CLOUDY    27  20  76 NW14      30.25F WCI  16
$$

ILZ005-006-012>014-019>023-172100-
NORTHEAST ILLINOIS

CITY           SKY/WX    TMP DP  RH WIND       PRES   REMARKS
CHICAGO-OHARE  CLOUDY    26  17  68 NW13      30.20F WCI  15
CHICAGO-MIDWAY CLOUDY    28  18  66 NW13      30.21F WCI  17
AURORA         CLOUDY    27  18  69 NW14      30.22F WCI  16
LANSING*       CLOUDY    27  18  69 NW12      30.21F WCI  17
JOLIET*        CLOUDY    26  19  72 W9        30.23S WCI  17
WAUKEGAN       CLOUDY    26  16  65 W9        30.19S WCI  17
DUPAGE AIRPORT CLOUDY    26  17  68 NW15      30.21S WCI  14
KANKAKEE*      CLOUDY    28  21  77 W10       30.23F WCI  18
WHEELING       CLOUDY    26  16  65 W10       30.22F WCI  16
MORRIS*        CLOUDY    27  22  79 NW14      30.23S WCI  16
ROMEOVILLE*    CLOUDY    26  19  73 NW12G17   30.22F WCI  16
NORTHERLY ISL    N/A     27  18  69 W10         N/A  WCI  17
$$

LMZ740>746-172100-
SOUTHERN LAKE MICHIGAN

STATION/POSITION SKY/WX   TEMP    WIND        PRES    VSBY  WAVE
                          AIR SEA DIR/SP/G                  HT/PER
                          (F)     (DEG/KT/KT) (MB)    (MI)  (FT/S)
WAUKEGAN HARBOR            26     300/ 15/ 23   N/A
HARRISON CRIB              26     300/ 12/ 15   N/A
BURNHAM HARBOR             27     260/  8/ 14   N/A
CALUMET HARBOR             27     260/  8/ 12 1021.6F
$$

ILZ025>027-034>036-040-047-049-050-058-095>099-172100-
WEST-CENTRAL ILLINOIS

CITY           SKY/WX    TMP DP  RH WIND       PRES   REMARKS
QUINCY         SUNNY     27  18  69 VRB6      30.28F WCI  20
GALESBURG*     PTSUNNY   28  21  75 W10       30.26F WCI  18
MACOMB*        PTSUNNY   27  21  78 W7        30.30F WCI  19
JACKSONVILLE*  MOSUNNY   29  21  71 NW7       30.29S WCI  22
PITTSFIELD*    MOSUNNY   30  22  73 NW6       30.29F WCI  24
$$

ILZ028>032-037-038-041>044-048-051>054-059>061-172100-
CENTRAL ILLINOIS

CITY           SKY/WX    TMP DP  RH WIND       PRES   REMARKS
PONTIAC        CLOUDY    28  22  78 W10       30.25S WCI  18
BLOOMINGTON    CLOUDY    24  19  81 NW7       30.26S WCI  16
DECATUR        CLOUDY    24  18  77 NW10      30.28S WCI  14
PEORIA         PTSUNNY   28  18  66 W7        30.27F WCI  21
LACON*         PTSUNNY   27  19  71 W9        30.26R WCI  18
LINCOLN*       CLOUDY    26  20  78 W5        30.30S WCI  20
SPRINGFIELD    CLOUDY    26  18  71 NW9       30.30S WCI  17
TAYLORVILLE    CLOUDY    28  23  80 W12       30.29R WCI  18
$$

ILZ033-039-045-046-055>057-062-063-172100-
EAST-CENTRAL ILLINOIS

CITY           SKY/WX    TMP DP  RH WIND       PRES   REMARKS
CHAMPAIGN      CLOUDY    24  19  81 W10       30.26F WCI  14
DANVILLE*      CLOUDY    24  20  85 W7        30.23F WCI  16
RANTOUL*       CLOUDY    26  21  82 W8        30.26S WCI  17
MATTOON        CLOUDY    26  20  77 NW9       30.26R WCI  17
PARIS*         CLOUDY    25  22  89 W10       30.28R WCI  15
$$

ILZ079-100>102-172100-
SOUTHWEST ILLINOIS

CITY           SKY/WX    TMP DP  RH WIND       PRES   REMARKS
BELLEVILLE     SUNNY     40  25  54 VRB2      30.26F
CAHOKIA*       SUNNY     40  25  55 N7        30.27F
SPARTA*        SUNNY     36  26  67 CALM      30.28S
$$

ILZ064>066-069>071-074>076-080>082-084>086-088>090-092>094-172100-
SOUTH-CENTRAL ILLINOIS

CITY           SKY/WX    TMP DP  RH WIND       PRES   REMARKS
CARBONDALE     SUNNY     37  25  61 CALM      30.28S
CAIRO*         MOSUNNY   40  28  61 CALM      30.27F
EFFINGHAM*     CLOUDY    30  23  74 W10       30.29S WCI  21
MARION         MOSUNNY   37  27  65 NW6       30.28F WCI  33
MT. VERNON     PTSUNNY   37  25  60 NW5       30.27S WCI  34
CENTRALIA*     MOSUNNY   36  26  67 NW8       30.27S WCI  29
SALEM*         CLOUDY    36  27  70 NW6       30.27S WCI  31
METROPOLIS*    MOSUNNY   39  29  66 W3        30.26F
$$

ILZ067-068-072-073-078-083-087-091-172100-
SOUTHEAST ILLINOIS

CITY           SKY/WX    TMP DP  RH WIND       PRES   REMARKS
LAWRENCEVILLE  CLOUDY    32  24  72 NW9       30.28S WCI  24
FLORA*         MOSUNNY   32  26  77 NW9       30.28S WCI  25
FAIRFIELD*     PTSUNNY   36  26  68 W5        30.26S WCI  32
HARRISBURG*    SUNNY     37  26  66 W3        30.28F
ROBINSON*      CLOUDY    30  24  79 NW8       30.28S WCI  22
CARMI*         PTSUNNY   36  29  75 NW6       30.27F WCI  31
$$

ABBREVIATIONS USED IN REMARKS
   TC - TEMPERATURE IN CELSIUS
  WCI - WIND CHILL INDEX
   HX - HEAT INDEX
  VSB - VISIBILITY
$$




USA.gov is the U.S. government's official web portal to all federal, state and local government web resources and services.